This demonstration page uses our WeatherBlox Daily Observations layout. Learn more.

Left ArrowRight Arrow

Hourly Observations for May 25, 2020

Temp ( °F °C ) Dew Point ( °F °C ) Humidity (%) Winds ( mph kmh ) Pressure ( in mb ) Visibility ( mi km ) Precip ( " mm )
12:53 am 00:53 Clear 68 20 65 18.3 90 90 ESE 3 6 30.02 1017 10 16 0.00 0.00
1:53 am 01:53 Clear 68 20 65 18.3 90 90 E 3 6 30.02 1017 10 16 0.00 0.00
2:53 am 02:53 Clear 67 19.4 65 18.3 93 93 Calm 30.01 1016 10 16 0.00 0.00
3:53 am 03:53 Clear 66 18.9 65 18.3 96 96 Calm 30.00 1016 10 16 0.00 0.00
4:53 am 04:53 Clear 66 18.9 64 17.8 93 93 ESE 3 6 30.00 1016 10 16 0.00 0.00
5:53 am 05:53 Clear 67 19.4 65 18.3 93 93 S 3 6 30.01 1016 10 16 0.00 0.00
6:53 am 06:53 Sunny 67 19.4 65 18.3 93 93 Calm 30.03 1017 10 16 0.00 0.00
7:53 am 07:53 Sunny 71 21.7 65 18.3 81 81 Calm 30.05 1018 10 16 0.00 0.00
8:53 am 08:53 Sunny 74 23.3 67 19.4 79 79 E 3 6 30.06 1018 10 16 0.00 0.00
9:53 am 09:53 Sunny 76 24.4 68 20 77 77 Calm 30.07 1018 10 16 0.00 0.00
10:53 am 10:53 Sunny 79 26.1 68 20 69 69 ENE 5 7 30.06 1018 10 16 0.00 0.00
11:53 am 11:53 Sunny 83 28.3 69 20.6 63 63 VRB 3 6 30.06 1018 10 16 0.00 0.00
12:53 pm 12:53 Mostly Cloudy with Light Rain 82 27.8 68 20 63 63 Calm 30.06 1018 6 10 0.01 0.25
12:58 pm 12:58 Mostly Cloudy with Rain 77 25 69 20.6 77 77 NNW 30 48 30.04 1017 2 2 0.10 2.54
1:00 pm 13:00 Cloudy with Strong Thunderstorms 74 23.3 67 19.4 79 79 N 28 44 30.05 1018 1 2 0.12 3.05
1:09 pm 13:09 Mostly Cloudy with Thunderstorms 73 22.8 65 18.3 76 76 N 13 20 30.04 1017 3 5 0.12 3.05
1:19 pm 13:19 Mostly Cloudy with Rain 75 23.9 67 19.4 76 76 N 16 26 30.05 1018 3 4 0.22 5.59
1:21 pm 13:21 Cloudy with Heavy Rain 75 23.9 67 19.4 76 76 N 20 31 30.05 1018 2 2 0.27 6.86
1:30 pm 13:30 Cloudy with Thunderstorms 73 22.8 66 18.9 79 79 NE 15 24 30.05 1018 2 3 0.30 7.62
1:34 pm 13:34 Mostly Cloudy with Thunderstorms 73 22.8 66 18.9 79 79 NE 15 24 30.05 1018 8 13 0.30 7.62
4:53 pm 16:53 Sunny 76 24.4 68 20 77 77 E 8 13 30.02 1017 10 16 0.00 0.00
5:53 pm 17:53 Sunny 78 25.6 67 19.4 69 69 E 6 9 30.02 1017 10 16 0.00 0.00
6:53 pm 18:53 Sunny 80 26.7 68 20 67 67 E 5 7 30.00 1016 10 16 0.00 0.00
7:53 pm 19:53 Sunny 79 26.1 67 19.4 67 67 E 5 7 30.01 1016 10 16 0.00 0.00
8:53 pm 20:53 Sunny 73 22.8 71 21.7 94 94 Calm 30.02 1017 10 16 0.00 0.00
9:53 pm 21:53 Clear 70 21.1 69 20.6 97 97 Calm 30.03 1017 10 16 0.00 0.00
10:53 pm 22:53 Clear 69 20.6 68 20 96 96 Calm 30.04 1017 10 16 0.00 0.00
11:53 pm 23:53 Clear 70 21.1 69 20.6 97 97 Calm 30.04 1017 10 16 0.00 0.00

Powered by AerisWeather